| time (UTC) | temp F | wind direction | speed MPH | gust MPH | rain 1hr in | rain 24hr in | rain mn in | humidity % | barometer mb |
| 20260509221008 | 62 | 287 | 3.0 | 4.0 | 0.00 | 0.00 | 0.00 | 90 | 1013.9 |
| 20260509220011 | 62 | 256 | 4.0 | 6.0 | 0.00 | 0.00 | 0.61 | 90 | 1014.3 |
| 20260509214009 | 61 | 260 | 2.0 | 4.0 | 0.00 | 0.00 | 0.61 | 89 | 1014.3 |
| 20260509213012 | 62 | 291 | 1.0 | 2.0 | 0.00 | 0.00 | 0.61 | 89 | 1013.9 |
| 20260509212008 | 62 | 42 | 0.0 | 2.0 | 0.00 | 0.00 | 0.61 | 89 | 1013.7 |
| 20260509210010 | 61 | 91 | 1.0 | 2.0 | 0.00 | 0.00 | 0.61 | 89 | 1013.4 |
| 20260509205010 | 61 | 132 | 1.0 | 2.0 | 0.00 | 0.00 | 0.61 | 88 | 1013.5 |
| 20260509204020 | 62 | 225 | 0.0 | 1.0 | 0.00 | 0.00 | 0.61 | 88 | 1013.6 |
| 20260509203030 | 62 | 224 | 1.0 | 2.0 | 0.00 | 0.00 | 0.61 | 88 | 1013.5 |
| 20260509202008 | 62 | 101 | 0.0 | 2.0 | 0.00 | 0.00 | 0.61 | 88 | 1013.5 |
| 20260509200010 | 62 | 156 | 1.0 | 2.0 | 0.00 | 0.00 | 0.61 | 86 | 1013.1 |
| 20260509195008 | 62 | 113 | 2.0 | 4.0 | 0.00 | 0.00 | 0.61 | 86 | 1013.0 |
| 20260509194010 | 62 | 218 | 1.0 | 3.0 | 0.00 | 0.00 | 0.61 | 85 | 1012.8 |
| 20260509193009 | 63 | 248 | 1.0 | 3.0 | 0.00 | 0.00 | 0.61 | 85 | 1012.8 |
| 20260509192009 | 63 | 225 | 2.0 | 3.0 | 0.00 | 0.00 | 0.61 | 84 | 1012.7 |
| 20260509191011 | 63 | 149 | 1.0 | 3.0 | 0.00 | 0.00 | 0.61 | 82 | 1012.5 |
| 20260509190024 | 63 | 144 | 2.0 | 4.0 | 0.00 | 0.00 | 0.61 | 81 | 1012.2 |
| 20260509185009 | 63 | 133 | 3.0 | 5.0 | 0.00 | 0.00 | 0.61 | 80 | 1012.1 |
| 20260509184010 | 63 | 111 | 4.0 | 7.0 | 0.00 | 0.00 | 0.61 | 80 | 1012.0 |
| 20260509183021 | 63 | 103 | 5.0 | 8.0 | 0.00 | 0.00 | 0.61 | 81 | 1011.6 |
| 20260509182010 | 64 | 114 | 4.0 | 7.0 | 0.00 | 0.00 | 0.61 | 80 | 1011.6 |
| 20260509181024 | 64 | 115 | 4.0 | 7.0 | 0.00 | 0.00 | 0.61 | 80 | 1011.7 |
| 20260509180008 | 64 | 127 | 8.0 | 11.0 | 0.00 | 0.00 | 0.61 | 79 | 1011.5 |
| 20260509175009 | 65 | 128 | 7.0 | 11.0 | 0.00 | 0.00 | 0.61 | 76 | 1011.5 |
| 20260509174011 | 66 | 134 | 6.0 | 10.0 | 0.00 | 0.00 | 0.61 | 72 | 1011.3 |
| 20260509173008 | 66 | 126 | 7.0 | 10.0 | 0.00 | 0.00 | 0.61 | 70 | 1011.1 |
| 20260509172008 | 66 | 108 | 6.0 | 11.0 | 0.00 | 0.00 | 0.61 | 68 | 1011.0 |
| 20260509171009 | 68 | 97 | 5.0 | 7.0 | 0.00 | 0.00 | 0.61 | 66 | 1010.9 |
| 20260509170026 | 68 | 90 | 6.0 | 9.0 | 0.00 | 0.00 | 0.61 | 66 | 1010.8 |
| 20260509165008 | 69 | 77 | 5.0 | 9.0 | 0.00 | 0.00 | 0.61 | 66 | 1010.8 |
| 20260509164007 | 69 | 83 | 6.0 | 9.0 | 0.00 | 0.00 | 0.61 | 68 | 1010.7 |
| 20260509163011 | 69 | 56 | 6.0 | 10.0 | 0.00 | 0.00 | 0.61 | 68 | 1010.8 |
| 20260509161008 | 67 | 57 | 5.0 | 10.0 | 0.00 | 0.00 | 0.61 | 73 | 1010.9 |
| 20260509160011 | 68 | 86 | 5.0 | 8.0 | 0.00 | 0.00 | 0.61 | 72 | 1011.0 |
| 20260509155009 | 69 | 62 | 5.0 | 9.0 | 0.00 | 0.00 | 0.61 | 70 | 1010.9 |
| 20260509154008 | 67 | 69 | 6.0 | 10.0 | 0.00 | 0.00 | 0.61 | 72 | 1011.1 |
| 20260509153008 | 67 | 58 | 6.0 | 10.0 | 0.00 | 0.00 | 0.61 | 72 | 1011.1 |
| 20260509152008 | 67 | 23 | 7.0 | 11.0 | 0.00 | 0.00 | 0.61 | 71 | 1011.2 |
| 20260509150025 | 68 | 22 | 6.0 | 11.0 | 0.00 | 0.00 | 0.61 | 74 | 1011.1 |
| 20260509145008 | 68 | 34 | 5.0 | 9.0 | 0.00 | 0.00 | 0.61 | 73 | 1011.1 |
| 20260509143020 | 67 | 26 | 5.0 | 8.0 | 0.00 | 0.00 | 0.61 | 76 | 1011.2 |
| 20260509142007 | 67 | 4 | 6.0 | 10.0 | 0.00 | 0.00 | 0.61 | 75 | 1011.3 |
| 20260509141007 | 67 | 12 | 3.0 | 5.0 | 0.00 | 0.00 | 0.61 | 78 | 1011.3 |
| 20260509140024 | 66 | 0 | 3.0 | 7.0 | 0.00 | 0.00 | 0.61 | 79 | 1011.2 |
| 20260509135007 | 65 | 28 | 4.0 | 8.0 | 0.00 | 0.00 | 0.61 | 82 | 1011.2 |
| 20260509134009 | 65 | 357 | 2.0 | 5.0 | 0.00 | 0.00 | 0.61 | 86 | 1011.2 |
| 20260509133008 | 63 | 32 | 1.0 | 3.0 | 0.01 | 0.00 | 0.61 | 88 | 1011.4 |
| 20260509132007 | 62 | 61 | 6.0 | 11.0 | 0.02 | 0.00 | 0.61 | 90 | 1010.8 |
| 20260509131009 | 62 | 43 | 7.0 | 11.0 | 0.04 | 0.00 | 0.61 | 91 | 1010.4 |
| 20260509130011 | 62 | 33 | 6.0 | 9.0 | 0.05 | 0.00 | 0.61 | 92 | 1010.8 |
| 20260509125009 | 62 | 27 | 4.0 | 7.0 | 0.06 | 0.00 | 0.61 | 93 | 1011.4 |
| 20260509124009 | 62 | 352 | 3.0 | 5.0 | 0.08 | 0.00 | 0.61 | 93 | 1011.7 |
| 20260509123007 | 61 | 294 | 3.0 | 5.0 | 0.09 | 0.00 | 0.60 | 93 | 1012.2 |
| 20260509121007 | 60 | 271 | 5.0 | 7.0 | 0.09 | 0.00 | 0.58 | 93 | 1012.4 |
| 20260509120032 | 60 | 270 | 5.0 | 6.0 | 0.11 | 0.00 | 0.57 | 94 | 1012.6 |
| 20260509114009 | 61 | 266 | 4.0 | 6.0 | 0.11 | 0.00 | 0.53 | 94 | 1012.6 |
| 20260509112008 | 61 | 271 | 5.0 | 7.0 | 0.11 | 0.00 | 0.50 | 93 | 1012.2 |
| 20260509111008 | 61 | 273 | 5.0 | 7.0 | 0.09 | 0.00 | 0.48 | 93 | 1012.1 |
| 20260509110019 | 61 | 308 | 3.0 | 4.0 | 0.09 | 0.00 | 0.46 | 92 | 1011.8 |
| 20260509105007 | 61 | 293 | 3.0 | 6.0 | 0.11 | 0.00 | 0.44 | 91 | 1011.6 |
| 20260509103007 | 61 | 264 | 3.0 | 5.0 | 0.14 | 0.00 | 0.41 | 91 | 1011.8 |
| 20260509102007 | 61 | 293 | 3.0 | 5.0 | 0.14 | 0.00 | 0.39 | 91 | 1011.7 |
| 20260509101008 | 61 | 308 | 2.0 | 4.0 | 0.18 | 0.00 | 0.39 | 91 | 1011.2 |
| 20260509100010 | 61 | 323 | 5.0 | 8.0 | 0.19 | 0.00 | 0.37 | 91 | 1011.1 |
| 20260509094010 | 61 | 1 | 3.0 | 6.0 | 0.17 | 0.00 | 0.30 | 89 | 1011.2 |
| 20260509093015 | 61 | 14 | 5.0 | 10.0 | 0.19 | 0.00 | 0.27 | 90 | 1011.0 |
| 20260509092008 | 61 | 12 | 4.0 | 7.0 | 0.20 | 0.00 | 0.25 | 89 | 1010.6 |
| 20260509091008 | 61 | 4 | 3.0 | 5.0 | 0.20 | 0.00 | 0.22 | 89 | 1011.0 |
| 20260509090011 | 61 | 15 | 5.0 | 8.0 | 0.17 | 0.00 | 0.18 | 89 | 1011.0 |
| 20260509085009 | 61 | 346 | 2.0 | 4.0 | 0.15 | 0.00 | 0.15 | 88 | 1011.3 |
| 20260509084009 | 61 | 285 | 4.0 | 6.0 | 0.13 | 0.00 | 0.13 | 87 | 1011.6 |
| 20260509083009 | 62 | 308 | 2.0 | 4.0 | 0.08 | 0.00 | 0.08 | 85 | 1011.8 |
| 20260509082008 | 62 | 10 | 5.0 | 9.0 | 0.05 | 0.00 | 0.05 | 84 | 1011.6 |
| 20260509081008 | 62 | 352 | 4.0 | 5.0 | 0.02 | 0.00 | 0.02 | 83 | 1011.5 |
| 20260509075007 | 62 | 1 | 4.0 | 7.0 | 0.00 | 0.00 | 0.00 | 82 | 1011.3 |
| 20260509074010 | 62 | 286 | 5.0 | 7.0 | 0.00 | 0.00 | 0.00 | 80 | 1011.7 |
| 20260509073019 | 62 | 0 | 3.0 | 5.0 | 0.00 | 0.00 | 0.00 | 81 | 1011.6 |
| 20260509071009 | 62 | 243 | 3.0 | 5.0 | 0.00 | 0.00 | 0.00 | 80 | 1011.9 |
| 20260509065007 | 62 | 312 | 2.0 | 4.0 | 0.00 | 0.00 | 0.00 | 80 | 1011.3 |
| 20260509064008 | 62 | 345 | 4.0 | 6.0 | 0.00 | 0.00 | 0.00 | 80 | 1010.6 |
| 20260509063008 | 62 | 348 | 4.0 | 8.0 | 0.00 | 0.00 | 0.00 | 81 | 1010.3 |
| 20260509062007 | 62 | 359 | 4.0 | 7.0 | 0.00 | 0.00 | 0.00 | 82 | 1010.1 |
| 20260509060020 | 62 | 354 | 5.0 | 7.0 | 0.00 | 0.00 | 0.00 | 83 | 1010.5 |
| 20260509055008 | 61 | 276 | 3.0 | 5.0 | 0.00 | 0.00 | 0.00 | 82 | 1011.5 |
| 20260509050010 | 62 | 352 | 4.0 | 7.0 | 0.00 | 0.00 | 0.00 | 81 | 1011.3 |
| 20260509045008 | 62 | 5 | 6.0 | 9.0 | 0.00 | 0.00 | 0.00 | 81 | 1011.1 |
| 20260509044008 | 62 | 347 | 3.0 | 5.0 | 0.00 | 0.00 | 0.00 | 81 | 1010.9 |
| 20260509042018 | 62 | 338 | 4.0 | 7.0 | 0.00 | 0.00 | 0.00 | 80 | 1010.8 |
| 20260509041008 | 62 | 342 | 3.0 | 6.0 | 0.00 | 0.00 | 0.00 | 79 | 1011.2 |
| 20260509040012 | 62 | 1 | 4.0 | 7.0 | 0.00 | 0.00 | 0.00 | 77 | 1011.1 |
| 20260509033012 | 62 | 356 | 4.0 | 7.0 | 0.00 | 0.00 | 0.00 | 76 | 1011.2 |
| 20260509032007 | 62 | 4 | 4.0 | 6.0 | 0.00 | 0.00 | 0.00 | 76 | 1011.4 |
| 20260509030027 | 62 | 15 | 6.0 | 11.0 | 0.00 | 0.00 | 0.00 | 75 | 1011.3 |
| 20260509025011 | 62 | 6 | 5.0 | 8.0 | 0.00 | 0.00 | 0.00 | 75 | 1011.4 |
| 20260509024011 | 62 | 3 | 4.0 | 7.0 | 0.00 | 0.00 | 0.00 | 75 | 1011.5 |
| 20260509023008 | 62 | 14 | 5.0 | 8.0 | 0.00 | 0.00 | 0.00 | 75 | 1011.5 |
| 20260509022023 | 62 | 5 | 4.0 | 7.0 | 0.00 | 0.00 | 0.00 | 76 | 1011.5 |
| 20260509021008 | 62 | 16 | 4.0 | 7.0 | 0.00 | 0.00 | 0.00 | 76 | 1011.7 |
| 20260509020009 | 62 | 16 | 4.0 | 8.0 | 0.00 | 0.00 | 0.00 | 77 | 1011.8 |
| 20260509014009 | 62 | 19 | 5.0 | 8.0 | 0.00 | 0.00 | 0.00 | 78 | 1011.9 |
| 20260509013011 | 62 | 29 | 4.0 | 7.0 | 0.00 | 0.00 | 0.00 | 79 | 1011.9 |
| 20260509012008 | 62 | 22 | 4.0 | 7.0 | 0.00 | 0.00 | 0.00 | 79 | 1012.1 |
| 20260509011007 | 62 | 12 | 6.0 | 9.0 | 0.00 | 0.00 | 0.00 | 80 | 1012.3 |
| 20260509010023 | 62 | 19 | 5.0 | 8.0 | 0.00 | 0.00 | 0.00 | 80 | 1012.3 |
| 20260509004009 | 62 | 34 | 5.0 | 8.0 | 0.00 | 0.00 | 0.00 | 80 | 1012.5 |
| 20260509003031 | 62 | 27 | 4.0 | 7.0 | 0.00 | 0.00 | 0.00 | 81 | 1012.7 |
| 20260509002007 | 62 | 18 | 4.0 | 6.0 | 0.00 | 0.00 | 0.00 | 81 | 1012.9 |
| 20260509001007 | 62 | 9 | 4.0 | 7.0 | 0.00 | 0.00 | 0.00 | 81 | 1012.9 |
| 20260509000009 | 62 | 10 | 4.0 | 7.0 | 0.00 | 0.00 | 0.00 | 81 | 1012.9 |
| 20260508235008 | 62 | 11 | 6.0 | 8.0 | 0.00 | 0.00 | 0.00 | 81 | 1012.9 |
| 20260508234008 | 62 | 16 | 5.0 | 7.0 | 0.00 | 0.00 | 0.00 | 81 | 1013.0 |
| 20260508232008 | 63 | 15 | 5.0 | 10.0 | 0.00 | 0.00 | 0.00 | 81 | 1013.0 |
| 20260508231008 | 63 | 22 | 6.0 | 9.0 | 0.00 | 0.00 | 0.00 | 81 | 1013.1 |
| 20260508230009 | 63 | 10 | 5.0 | 8.0 | 0.00 | 0.00 | 0.00 | 81 | 1013.1 |
| 20260508223012 | 64 | 25 | 4.0 | 6.0 | 0.00 | 0.00 | 0.00 | 79 | 1013.4 |
| 20260508222008 | 64 | 38 | 4.0 | 6.0 | 0.00 | 0.00 | 0.00 | 79 | 1013.4 |